Location: *
(49.3500°N, 12.6000°E)
Time: 22:22:19
(UTC+00:00)

CZ-4 R/B - Pass Details

Date: 18 October 2019
Orbit: 581 x 589 km, 97.8° (Epoch: 16 November)

Event Time Altitude Azimuth Distance (km) Brightness Sun altitude
Rises 16:57:10 0° 155° (SSE) 2,792 7.7 -7.7°
Reaches altitude 10° 16:59:20 10° 152° (SSE) 1,896 6.8 -8.1°
Maximum altitude 17:03:22 60° 73° (ENE) 672 4.5 -8.7°
Drops below altitude 10° 17:07:27 10° 353° (N) 1,911 7.1 -9.4°
Sets 17:09:38 0° 350° (N) 2,815 8.0 -9.7°
